Weather observations for the past three days for
Dodge Center Airport
Imperial (Metric)
Date Time (cdt) Wind (mph) Vis. (mi.) Weather Sky Cond. Temperature (ºF) Relative Humidity Wind Chill (°F) Heat Index (°F) Pressure Precipitation (in)
Air Dwpt 6 hour altimeter (in) sea level (mb) 1 hr 3 hr 6 hr
Max. Min.
09 03:15 SW 7 10.00 Fair CLR 41.5 30 64% 38 29.59 0.0
09 02:55 SW 6 9.00 Fair CLR 41.5 29.3 62% 38 29.6 0.0
09 02:35 SW 7 10.00 Fair CLR 41.7 28.4 59% 38 29.61 0.0
09 02:15 W 7 10.00 Fair CLR 45.5 30 55% 42 29.62 0.0
09 01:55 W 6 10.00 Fair CLR 48 29.3 48% 46 29.62 0.0
09 01:35 W 5 10.00 Fair CLR 50.5 29.1 44% 29.62 0.0
09 01:15 NW 7 10.00 Fair CLR 51.8 29.5 42% 29.63 0.0
09 00:55 NW 7 10.00 Fair CLR 52.3 30.4 68.4 52.3 43% 29.63 0.0
09 00:35 NW 9 10.00 Fair CLR 54.3 29.8 39% 29.63 0.0
09 00:15 NW 9 10.00 Fair CLR 54.3 30.2 40% 29.63 0.0
08 23:55 NW 9 10.00 Fair CLR 55.6 30 38% 29.63 0.0
08 23:35 NW 9 10.00 Fair CLR 55.8 29.7 37% 29.63 0.0
08 23:15 NW 9 10.00 Fair CLR 56.5 29.7 36% 29.63 0.0
08 22:55 NW 9 10.00 Fair CLR 57.4 29.8 35% 29.63 0.0
08 22:35 NW 9 10.00 Fair CLR 58.8 29.5 33% 29.63 0.0
08 22:15 NW 9 10.00 Fair CLR 58.1 30.6 35% 29.62 0.0
08 21:55 NW 8 10.00 Fair CLR 58.8 30.9 35% 29.62 0.0
08 21:35 NW 8 10.00 Fair CLR 59.4 31.3 35% 29.61 0.0
08 21:15 NW 9 10.00 Fair CLR 61 30.7 32% 29.6 0.0
08 20:55 NW 9 10.00 Fair CLR 63 30.7 30% 29.6 0.0
08 20:35 NW 12 10.00 A Few Clouds FEW100 64.4 30 28% 29.59 0.0
08 20:15 W 12 10.00 Partly Cloudy SCT110 65.7 30.2 27% 29.59 0.0
08 19:55 NW 15 10.00 Partly Cloudy SCT100 67.3 30.7 26% 29.59 0.0
08 19:35 W 16 G 21 10.00 Mostly Cloudy BKN100 BKN130 68 33.3 28% 29.58 0.0
08 19:15 NW 14 9.00 Mostly Cloudy SCT100 BKN130 68.2 32.5 27% 29.58 0.0
08 18:55 NW 12 10.00 Overcast FEW060 OVC100 68.2 30.7 71.1 67.3 25% 29.59 0.0
08 18:35 NW 14 G 22 10.00 Mostly Cloudy BKN100 BKN140 68.7 31.5 25% 29.59 0.0
08 18:15 NW 16 G 24 10.00 Mostly Cloudy BKN120 69.6 31.1 24% 29.59 0.0
08 17:55 W 22 10.00 Overcast and Breezy BKN110 OVC130 69.6 30.4 23% 29.6 0.0
08 17:15 W 21 G 29 10.00 Mostly Cloudy and Breezy BKN110 71.1 32 24% 29.61 0.0
08 16:55 W 18 10.00 Overcast OVC110 68.4 29.5 23% 29.61 0.0
08 16:35 W 13 10.00 Overcast OVC110 69.1 29.7 23% 29.62 0.0
08 16:15 W 17 G 24 10.00 Overcast BKN110 OVC130 69.8 29.5 22% 29.63 0.0
08 15:55 W 16 10.00 Overcast OVC100 67.8 28 23% 29.64 0.0
08 15:35 W 14 10.00 Overcast BKN100 OVC130 67.8 28.6 23% 29.64 0.0
08 15:15 NW 17 G 25 10.00 Overcast BKN110 OVC130 68.4 28.6 23% 29.65 0.0
08 14:55 W 16 G 28 10.00 Mostly Cloudy SCT110 BKN130 70.5 30 22% 29.66 0.0
08 14:35 W 13 G 20 10.00 Partly Cloudy SCT110 67.6 28.8 23% 29.66 0.0
08 14:15 NW 13 G 21 10.00 A Few Clouds FEW350 68.7 30.6 24% 29.67 0.0
08 13:55 W 15 G 20 10.00 Fair CLR 69.4 31.3 24% 29.68 0.0
08 13:35 NW 13 G 22 10.00 Fair CLR 68.5 29.5 23% 29.68 0.0
08 13:15 NW 16 10.00 A Few Clouds FEW100 67.8 28.8 23% 29.69 0.0
08 12:55 W 13 10.00 Mostly Cloudy BKN100 64.8 26.4 67.1 43.9 23% 29.71 0.0
08 12:35 W 17 G 22 10.00 Mostly Cloudy BKN100 65.8 27.3 23% 29.72 0.0
08 12:15 W 16 10.00 Mostly Cloudy BKN100 64.9 25.5 22% 29.73 0.0
08 11:55 W 16 G 22 10.00 Mostly Cloudy BKN100 BKN120 66.2 28.9 25% 29.74 0.0
08 11:35 SW 12 9.00 Mostly Cloudy SCT100 BKN120 63 28.6 27% 29.74 0.0
08 11:15 W 21 G 26 10.00 Overcast and Breezy BKN100 OVC130 64.2 28.8 26% 29.75 0.0
08 10:55 SW 15 G 23 10.00 Overcast OVC100 62.2 28.4 28% 29.75 0.0
08 10:35 SW 18 G 23 10.00 Overcast BKN110 OVC130 61.7 28.4 28% 29.76 0.0
08 10:15 SW 16 10.00 Overcast BKN100 OVC120 60.8 28.2 29% 29.76 0.0
08 09:55 SW 15 G 23 10.00 Mostly Cloudy BKN110 59 27.9 31% 29.77 0.0
08 09:35 SW 17 10.00 Mostly Cloudy BKN110 57.4 26.6 31% 29.78 0.0
08 09:15 SW 17 10.00 Fair CLR 55.8 26.1 32% 29.78 0.0
08 08:55 SW 13 G 23 10.00 Fair CLR 53.2 25.5 34% 29.79 0.0
08 08:35 SW 18 10.00 Fair CLR 51.8 25 35% 29.79 0.0
08 08:15 SW 15 10.00 Fair CLR 51.1 24.4 35% 29.79 0.0
08 07:55 SW 14 10.00 Fair CLR 49.5 24.4 38% 45 29.79 0.0
08 07:35 SW 14 10.00 Fair CLR 48.2 24.4 39% 43 29.79 0.0
08 07:15 SW 15 10.00 Fair CLR 46 23.9 42% 40 29.79 0.0
08 06:55 SW 13 10.00 Fair CLR 42.4 22.8 42.4 33.4 46% 36 29.78 0.0
08 06:35 SW 9 10.00 Fair CLR 40.8 22.3 48% 36 29.78 0.0
08 06:15 SW 12 10.00 Fair CLR 40.6 21.7 47% 34 29.78 0.0
08 05:55 S 12 9.00 Fair CLR 39.6 21.6 49% 33 29.78 0.0
08 05:35 SW 12 9.00 Fair CLR 40.6 21 46% 34 29.78 0.0
08 05:15 S 14 10.00 Fair CLR 41.5 21 44% 35 29.78 0.0
08 04:55 S 13 10.00 Fair CLR 40.1 21.2 47% 33 29.79 0.0
08 04:35 S 12 10.00 Fair CLR 39.4 21.2 48% 33 29.79 0.0
08 04:15 S 9 10.00 Fair CLR 35.6 21.7 57% 29 29.79 0.0
08 03:55 S 9 10.00 Fair CLR 33.8 22.3 63% 27 29.8 0.0
08 03:35 S 6 10.00 Fair CLR 35.8 20.7 54% 32 29.8 0.0
08 03:15 S 10 10.00 Fair CLR 38.3 20.3 48% 32 29.8 0.0
08 02:55 S 9 10.00 Fair CLR 35.8 22.5 58% 29 29.81 0.0
08 02:35 S 9 10.00 Fair CLR 35.8 21.2 55% 29 29.81 0.0
08 02:15 S 8 10.00 Fair CLR 37.2 19.6 49% 32 29.81 0.0
08 01:55 S 9 10.00 Fair CLR 37.9 19.4 47% 32 29.81 0.0
08 01:35 S 8 10.00 Fair CLR 38.5 19.9 47% 33 29.82 0.0
08 01:15 S 10 10.00 Fair CLR 40.1 20.8 46% 34 29.82 0.0
08 00:55 S 9 10.00 Fair CLR 38.1 23 55.4 36.5 55% 32 29.82 0.0
08 00:35 S 10 10.00 Fair CLR 39.4 21.7 49% 33 29.83 0.0
08 00:15 S 8 7.00 Fair CLR 36.7 23.2 58% 31 29.83 0.0
07 23:55 S 9 10.00 Fair CLR 38.5 22.6 53% 33 29.83 0.0
07 23:35 S 7 10.00 Fair CLR 37.6 22.8 55% 33 29.83 0.0
07 23:15 SE 7 10.00 Fair CLR 41.2 16.7 37% 37 29.84 0.0
07 22:55 SE 5 10.00 Fair CLR 42.1 17.1 36% 40 29.84 0.0
07 22:35 E 5 10.00 Fair CLR 43.7 17.6 35% 42 29.84 0.0
07 22:15 E 3 10.00 Fair CLR 42.6 19.4 39% 29.84 0.0
07 21:55 E 5 10.00 Fair CLR 45.9 18 33% 44 29.83 0.0
07 21:35 E 5 10.00 Fair CLR 45.1 17.4 33% 43 29.83 0.0
07 21:15 E 3 10.00 Fair CLR 45.5 18.7 34% 29.83 0.0
07 20:55 E 3 10.00 Fair CLR 50.2 18 28% 29.81 0.0
07 20:35 NE 3 9.00 Fair CLR 52 17.6 26% 29.81 0.0
07 20:15 N 3 10.00 Fair CLR 52.9 17.8 25% 29.81 0.0
07 19:55 NW 5 9.00 Fair CLR 52.7 21.2 29% 29.81 0.0
07 19:35 N 7 10.00 Fair CLR 53.8 21 28% 29.81 0.0
07 19:15 N 8 10.00 Fair CLR 54.7 21.9 28% 29.81 0.0
07 18:55 N 9 10.00 Fair CLR 55.6 20.7 57.2 52.5 26% 29.81 0.0
07 18:35 NW 9 10.00 Fair CLR 55.9 21.2 26% 29.81 0.0
07 18:15 NW 8 10.00 Fair CLR 56.1 20.1 25% 29.81 0.0
07 17:55 NW 8 10.00 Fair CLR 56.5 20.1 24% 29.81 0.0
07 17:35 NW 9 10.00 Fair CLR 56.3 21.7 26% 29.82 0.0
07 17:15 W 14 10.00 Fair CLR 56.7 20.5 24% 29.82 0.0
07 16:55 W 9 10.00 Fair CLR 57.2 21.2 25% 29.82 0.0
07 16:35 NW 13 G 21 10.00 Fair CLR 56.3 20.7 25% 29.82 0.0
07 16:15 NW 13 G 17 10.00 Fair CLR 56.8 22.6 27% 29.82 0.0
07 15:55 NW 12 G 21 10.00 Fair CLR 56.3 20.5 25% 29.83 0.0
07 15:35 NW 8 10.00 Fair CLR 56.5 21.7 26% 29.83 0.0
07 15:15 NW 10 10.00 Fair CLR 56.3 23.2 28% 29.83 0.0
07 14:55 NW 9 G 22 10.00 Fair CLR 55 21 26% 29.84 0.0
07 14:35 NW 6 G 18 10.00 Fair CLR 55.6 21.6 27% 29.84 0.0
07 14:15 NW 16 G 23 10.00 Fair CLR 54.5 21.4 27% 29.84 0.0
07 13:55 NW 14 G 21 10.00 Fair CLR 54.9 24.3 31% 29.84 0.0
07 13:35 W 14 10.00 Fair CLR 55 23 29% 29.85 0.0
07 13:15 N 13 G 20 10.00 Fair CLR 53.8 24.4 32% 29.85 0.0
07 12:55 N 9 10.00 Fair CLR 52.2 21.7 53.1 36.3 30% 29.86 0.0
07 12:35 NW 14 10.00 Fair CLR 52.7 23 31% 29.87 0.0
07 12:15 NW 13 10.00 Fair CLR 52.2 23.5 33% 29.87 0.0
07 11:55 NW 8 G 17 10.00 Fair CLR 50.9 22.5 33% 29.87 0.0
07 11:35 N 13 G 17 10.00 Fair CLR 50 21.6 33% 46 29.87 0.0
07 11:15 NW 10 10.00 Fair CLR 49.8 22.5 34% 46 29.88 0.0
07 10:55 NW 9 10.00 Fair CLR 49.1 23.7 37% 46 29.88 0.0
07 10:35 NW 12 10.00 Fair CLR 49.3 24.4 38% 45 29.88 0.0
07 10:15 N 6 10.00 Fair CLR 48.4 25.2 40% 46 29.88 0.0
07 09:55 W 3 10.00 Fair CLR 46.8 25.9 44% 29.89 0.0
07 09:35 NW 7 10.00 A Few Clouds FEW085 46.6 27 46% 44 29.89 0.0
07 09:15 N 7 10.00 Overcast OVC085 45.5 26.8 48% 42 29.89 0.0
07 08:55 NW 5 10.00 Overcast SCT080 OVC095 45.5 25 45% 44 29.9 0.0
07 08:35 Calm 10.00 Overcast FEW070 OVC095 44.4 25.5 48% 29.9 0.0
07 08:15 Calm 9.00 Mostly Cloudy FEW049 BKN065 BKN085 42.3 30 62% 29.9 0.0
07 07:55 Calm 10.00 Overcast FEW050 BKN070 OVC080 39.4 30.7 71% 29.9 0.0
07 07:35 Calm 9.00 Overcast FEW046 OVC070 39.4 29.3 67% 29.9 0.0
07 07:15 W 3 9.00 Overcast SCT046 OVC070 38.1 31.1 76% 29.91 0.0
07 06:55 Calm 10.00 Overcast SCT080 OVC090 35.6 27.1 36.1 30.4 71% 29.9 0.0
07 06:35 SW 3 10.00 Overcast OVC085 34.2 28 78% 29.9 0.0
07 06:15 W 5 10.00 Overcast FEW065 OVC080 35.6 28 74% 32 29.9 0.0
07 05:55 SW 3 10.00 Overcast BKN090 OVC100 34 24.3 68% 29.9 0.0
07 05:35 Calm 10.00 Overcast FEW042 SCT065 OVC090 33.3 24.1 69% 29.9 0.0
07 05:15 Calm 10.00 Overcast FEW042 SCT060 SCT080 SCT090 OVC110 33.1 24.1 70% 29.9 0.0
07 04:55 SW 5 10.00 Partly Cloudy FEW090 SCT110 31.1 23.9 75% 27 29.91 0.0
07 04:35 SW 3 10.00 A Few Clouds FEW090 31.6 23 70% 29.91 0.0
07 04:15 SW 3 10.00 Fair CLR 32.9 23.4 68% 29.91 0.0
07 03:55 S 6 10.00 Fair CLR 31.8 25.3 77% 27 29.91 0.0
07 03:35 S 6 10.00 A Few Clouds FEW110 32.4 26.1 78% 27 29.92 0.0
07 03:15 S 5 10.00 Mostly Cloudy BKN110 35.8 25 65% 32 29.92 0.0
07 02:55 S 5 10.00 Overcast FEW085 OVC110 35.1 26.4 71% 32 29.92 0.0
07 02:35 S 3 10.00 Overcast SCT080 OVC100 35.4 26.2 69% 29.93 0.0
07 02:15 SW 3 10.00 Overcast SCT080 OVC095 34.7 28 77% 29.93 0.0
07 01:55 SW 3 10.00 Overcast OVC085 34 27.3 77% 29.94 0.0
07 01:35 Calm 10.00 Overcast FEW060 OVC085 34.5 24.6 67% 29.94 0.0
07 01:15 Calm 10.00 Overcast BKN080 OVC100 33.6 24.3 69% 29.95 0.0
07 00:55 Calm 10.00 Overcast BKN080 OVC100 32.7 23 45.7 31.6 67% 29.95 0.0
07 00:35 Calm 9.00 Overcast FEW070 OVC085 32.4 21.2 63% 29.95 0.0
07 00:15 Calm 10.00 Mostly Cloudy BKN095 32.2 22.1 66% 29.95 0.0
06 23:55 Calm 10.00 Fair CLR 31.8 20.3 62% 29.95 0.0
06 23:35 Calm 9.00 Fair CLR 32.7 21.2 63% 29.95 0.0
06 23:15 Calm 9.00 Fair CLR 34.7 22.3 61% 29.96 0.0
06 22:55 Calm 6.00 Fair with Haze CLR 35.2 22.1 59% 29.96 0.0
06 22:35 Calm 7.00 Fair CLR 35.6 22.3 58% 29.96 0.0
06 22:15 Calm 10.00 Fair CLR 35.8 22.3 58% 29.96 0.0
06 21:55 Calm 10.00 Fair CLR 35.8 23.4 61% 29.97 0.0
06 21:35 NW 3 10.00 Fair CLR 38.5 23 54% 29.98 0.0
06 21:15 NW 3 10.00 Fair CLR 40.3 22.5 49% 29.98 0.0
06 20:55 N 5 10.00 Fair CLR 39.7 23.2 52% 37 29.97 0.0
06 20:35 NW 7 9.00 Fair CLR 39.4 23.9 54% 35 29.97 0.0
06 20:15 NW 8 10.00 Fair CLR 41.5 23.7 49% 37 29.97 0.0
06 19:55 NW 12 10.00 Fair CLR 43.7 23.2 44% 38 29.97 0.0
06 19:35 NW 13 10.00 Partly Cloudy SCT055 44.1 24.6 46% 38 29.97 0.0
06 19:15 NW 14 10.00 Mostly Cloudy BKN055 45.3 24.1 43% 40 29.97 0.0
06 18:55 W 13 10.00 Overcast OVC055 45.7 24.1 47.1 40.8 43% 40 29.97 0.0
06 18:35 NW 9 10.00 Overcast OVC055 46 25 44% 42 29.97 0.0
06 18:15 NW 13 10.00 Partly Cloudy SCT055 44.8 23.7 44% 39 29.97 0.0
06 17:55 W 14 G 23 10.00 A Few Clouds FEW055 46.8 24.6 42% 41 29.97 0.0
06 17:35 W 10 10.00 A Few Clouds FEW055 45.5 23.7 42% 41 29.98 0.0
06 17:15 NW 17 G 21 10.00 Mostly Cloudy BKN050 45.7 24.3 43% 39 29.98 0.0
06 16:55 W 12 G 23 10.00 Overcast OVC050 46.6 25.2 43% 42 29.98 0.0
06 16:35 W 9 10.00 Overcast OVC049 44.2 24.3 45% 40 29.99 0.0
06 16:15 NW 13 G 23 10.00 Overcast OVC049 44.2 25.3 47% 39 29.99 0.0
06 15:55 NW 14 G 22 10.00 Overcast OVC047 43.9 25.2 48% 38 30 0.0
06 15:35 W 15 G 20 10.00 Overcast OVC047 43.3 24.4 47% 37 30 0.0
06 15:15 W 14 10.00 Overcast OVC046 42.4 24.3 49% 36 30 0.0
06 14:55 NW 15 G 20 10.00 Overcast OVC045 42.3 24.4 49% 35 30 0.0
06 14:35 NW 12 10.00 Overcast OVC043 41.7 24.1 50% 36 30.01 0.0
06 14:15 NW 15 G 21 10.00 Overcast OVC045 40.8 23.4 50% 34 30.01 0.0
06 13:55 NW 14 10.00 Overcast OVC047 41.4 23.7 50% 35 30.01 0.0
06 13:35 NW 14 10.00 Overcast OVC047 41.2 24.4 51% 34 30.01 0.0
06 13:15 NW 13 10.00 Overcast OVC048 41.5 24.8 51% 35 30.01 0.0
06 12:55 NW 14 10.00 Overcast OVC047 40.5 23.5 41.2 34.2 51% 33 30.01 0.0
06 12:35 NW 12 10.00 Overcast OVC050 41 23.7 50% 35 30.01 0.0
06 12:15 NW 10 10.00 Overcast OVC045 40.6 24.3 52% 35 30.02 0.0
06 11:55 W 10 G 20 10.00 Overcast OVC045 39.9 24.1 53% 34 30.02 0.0
06 11:35 NW 14 10.00 Overcast SCT040 OVC049 39.7 24.3 54% 33 30.02 0.0
06 11:15 W 10 10.00 Overcast FEW039 OVC050 40.1 24.3 53% 34 30.02 0.0
06 10:55 NW 15 10.00 Overcast FEW037 OVC049 39.6 24.3 54% 32 30.01 0.0
06 10:35 NW 12 10.00 Overcast OVC049 39.6 25 56% 33 30.01 0.0
06 10:15 NW 10 10.00 Overcast OVC049 38.8 24.4 56% 33 30.01 0.0
06 09:55 NW 10 10.00 Overcast OVC049 38.3 25.2 59% 32 30.01 0.0
06 09:35 NW 9 10.00 Overcast OVC049 38.1 25.2 60% 32 30.01 0.0
06 09:15 NW 7 10.00 Overcast OVC049 37.9 25.7 61% 33 30.01 0.0
06 08:55 NW 8 9.00 Overcast OVC049 37.2 25.3 62% 32 30 0.0
06 08:35 W 7 10.00 Overcast OVC049 37.2 26.6 66% 32 30 0.0
06 08:15 W 7 9.00 Overcast OVC050 36.7 25.2 63% 32 30 0.0
06 07:55 NW 6 10.00 Overcast OVC050 36.9 24.8 62% 33 30 0.0
06 07:35 NW 7 10.00 Overcast OVC050 36 24.6 63% 31 29.98 0.0
06 07:15 NW 6 10.00 Mostly Cloudy BKN050 34.7 24.1 65% 30 29.97 0.0
06 06:55 NW 6 9.00 A Few Clouds FEW050 32.9 24.1 36.9 29.1 70% 28 29.97 0.0
06 06:35 W 5 9.00 Fair CLR 31.8 23.5 71% 28 29.96 0.0
06 06:15 NW 6 8.00 Fair CLR 29.1 23.5 80% 24 29.95 0.0
06 05:55 NW 6 9.00 Fair CLR 29.7 23.4 77% 24 29.96 0.0
06 05:35 NW 7 9.00 Fair CLR 30 23.4 76% 24 29.96 0.0
06 05:15 NW 6 10.00 Fair CLR 30.4 23.2 75% 25 29.95 0.0
06 04:55 NW 6 10.00 Fair CLR 30.7 23.4 74% 26 29.95 0.0
06 04:35 NW 7 10.00 Fair CLR 31.1 23.7 74% 25 29.94 0.0
06 04:15 NW 8 9.00 Fair CLR 31.6 23.9 73% 25 29.94 0.0
06 03:55 NW 8 10.00 Fair CLR 32.5 23.9 71% 26 29.93 0.0
06 03:35 NW 8 10.00 Fair CLR 32.9 23.9 70% 27 29.93 0.0
Date Time (cdt) Wind (mph) Vis. (mi.) Weather Sky Cond. Air Dwpt Max. Min. Relative Humidity Wind Chill (°F) Heat Index (°F) altimeter (in) sea level (mb) 1 hr 3 hr 6 hr
6 hour
Temperature (ºF) Pressure Precipitation (in)